Weather History for KMFE - May, 2013

Change the Weather History Date:

Sunday, May 5, 2013

  Actual Average Record
Temperature  
Mean Temperature 75 °F 80 °F  
Max Temperature 88 °F 90 °F 106 °F (1999)
Min Temperature 62 °F 70 °F 51 °F (1970)
Degree Days  
Heating Degree Days 0 0  
Month to date heating degree days 0 0  
Since 1 July heating degree days 318 579  
Cooling Degree Days 10 15  
Month to date cooling degree days 44 72  
Year to date cooling degree days 834 803  
Growing Degree Days 25 (Base 50)    
Moisture  
Dew Point 53 °F    
Average Humidity 48    
Maximum Humidity 78    
Minimum Humidity 18    
Precipitation  
Precipitation 0.00 in 0.08 in 1.02 in (1991)
Month to date precipitation 0.00 0.34  
Year to date precipitation 2.32 4.87  
Sea Level Pressure  
Sea Level Pressure 30.01 in    
Wind  
Wind Speed 7 mph (ESE)    
Max Wind Speed 17 mph    
Max Gust Speed 21 mph    
Visibility 10 miles    
Events      
T = Trace of Precipitation, MM = Missing Value Source: NWS Daily Summary

Daily Weather History Graph

Daily Weather History Graph

Search for Another Location

Airport or City:

Trip Planner

Search our weather history database for the weather conditions in past years. The results will help you decide how hot, cold, wet, or windy it might be!

Date:

Astronomy

May. 05, 2013 Rise Set
Actual Time 6:52 AM CDT 8:07 PM CDT
Civil Twilight 6:27 AM CDT 8:31 PM CDT
Nautical Twilight 5:58 AM CDT 9:00 PM CDT
Astronomical Twilight 5:28 AM CDT 9:30 PM CDT
Moon 3:59 AM CDT (5/5) 4:28 PM CDT (5/5)
Length of Visible Light 14h 03m
Length of Day
13h 14m
Waning Crescent, 18% of the Moon is Illuminated
May 5
Waning Crescent
May 9
New
May 17
First Quarter
May 24
Full
May 31
Last Quarter

Hourly Weather History & Observations

Time (CDT) Temp. Dew Point Humidity Pressure Visibility Wind Dir Wind Speed Gust Speed Precip Events Conditions
12:53 AM 63.0 °F 52.0 °F 67% 29.97 in 10.0 mi ESE 8.1 mph - N/A   Clear
1:53 AM 63.0 °F 52.0 °F 67% 29.97 in 10.0 mi ESE 6.9 mph - N/A   Clear
2:53 AM 63.0 °F 53.1 °F 70% 29.96 in 10.0 mi ESE 6.9 mph - N/A   Clear
3:53 AM 62.1 °F 54.0 °F 75% 29.96 in 10.0 mi SE 5.8 mph - N/A   Clear
4:53 AM 64.0 °F 55.0 °F 73% 29.96 in 10.0 mi ESE 5.8 mph - N/A   Clear
5:53 AM 63.0 °F 55.0 °F 75% 29.97 in 10.0 mi ESE 4.6 mph - N/A   Clear
6:53 AM 64.0 °F 55.9 °F 75% 29.98 in 10.0 mi East 4.6 mph - N/A   Clear
7:53 AM 66.9 °F 57.0 °F 70% 30.00 in 10.0 mi ESE 5.8 mph - N/A   Clear
8:53 AM 69.1 °F 57.9 °F 68% 30.01 in 10.0 mi SSE 5.8 mph - N/A   Clear
9:53 AM 72.0 °F 57.9 °F 61% 30.04 in 10.0 mi Calm Calm - N/A   Clear
10:53 AM 75.9 °F 57.0 °F 52% 30.04 in 10.0 mi SE 5.8 mph - N/A   Clear
11:53 AM 79.0 °F 57.0 °F 47% 30.05 in 10.0 mi Calm Calm - N/A   Clear
12:53 PM 82.4 °F 51.8 °F 35% 30.05 in 10.0 mi North 8.1 mph - N/A   Clear
1:53 PM 84.0 °F 46.0 °F 26% 30.03 in 10.0 mi NE 9.2 mph - N/A   Clear
2:53 PM 87.1 °F 48.0 °F 26% 30.01 in 10.0 mi East 9.2 mph - N/A   Clear
3:53 PM 88.0 °F 39.0 °F 18% 29.99 in 10.0 mi ENE 6.9 mph - N/A   Clear
4:53 PM 86.0 °F 48.9 °F 28% 29.97 in 10.0 mi East 10.4 mph - N/A   Clear
5:53 PM 86.0 °F 50.0 °F 29% 29.97 in 10.0 mi East 10.4 mph - N/A   Clear
6:53 PM 82.4 °F 48.2 °F 30% 29.99 in 10.0 mi ESE 11.5 mph - N/A   Clear
7:53 PM 78.1 °F 51.1 °F 39% 30.01 in 10.0 mi ESE 12.7 mph - N/A   Clear
8:53 PM 73.9 °F 51.1 °F 45% 30.03 in 10.0 mi ESE 10.4 mph - N/A   Clear
9:53 PM 71.1 °F 55.0 °F 57% 30.04 in 10.0 mi ESE 12.7 mph - N/A   Clear
10:53 PM 68.0 °F 57.0 °F 68% 30.06 in 10.0 mi SE 9.2 mph - N/A   Clear
11:53 PM 66.0 °F 57.0 °F 73% 30.07 in 10.0 mi SE 8.1 mph - N/A   Clear